Weather History for PAKP - February, 2013

Change the Weather History Date:

Saturday, February 23, 2013

  Actual Average Record
Temperature  
Mean Temperature -35 °F -  
Max Temperature -32 °F 0 °F 28 °F (2015)
Min Temperature -38 °F -12 °F -40 °F (2007)
Degree Days  
Heating Degree Days 100    
Moisture  
Dew Point -    
Average Humidity    
Maximum Humidity    
Minimum Humidity    
Precipitation  
Precipitation 0.00 in - - ()
Sea Level Pressure  
Sea Level Pressure 29.36 in    
Wind  
Wind Speed 9 mph (NNE)    
Max Wind Speed 12 mph    
Max Gust Speed -    
Visibility 7 miles    
Events      
Averages and records for this station are not official NWS values.
T = Trace of Precipitation, MM = Missing Value Source: NWS Daily Summary

Daily Weather History Graph

Daily Weather History Graph

Search for Another Location

Airport or City:

Trip Planner

Search our weather history database for the weather conditions in past years. The results will help you decide how hot, cold, wet, or windy it might be!

Date:

Astronomy

Feb. 23, 2013 Rise Set
Actual Time 8:49 AM AKST 5:52 PM AKST
Civil Twilight 7:51 AM AKST 6:50 PM AKST
Nautical Twilight 6:47 AM AKST 7:55 PM AKST
Astronomical Twilight 5:41 AM AKST 9:01 PM AKST
Moon 3:44 PM AKST (2/23) 7:54 AM AKST (2/23)
Length of Visible Light 10h 58m
Length of Day
9h 02m
Waxing Gibbous, 96% of the Moon is Illuminated
Feb 23
Waxing Gibbous
Feb 25
Full
Mar 4
Last Quarter
Mar 11
New
Mar 19
First Quarter

Hourly Weather History & Observations

Time (AKST) Temp. Windchill Dew Point Humidity Pressure Visibility Wind Dir Wind Speed Gust Speed Precip Events Conditions
12:16 AM -34.6 °F -59.2 °F - N/A% 29.47 in 4.0 mi NNE 10.4 mph - N/A   Overcast
12:36 AM -34.6 °F -59.2 °F - N/A% 29.47 in 5.0 mi NNE 10.4 mph - N/A   Overcast
12:56 AM -34.6 °F -57.8 °F - N/A% 29.46 in 5.0 mi NNE 9.2 mph - N/A   Mostly Cloudy
1:16 AM -34.6 °F -59.2 °F - N/A% 29.45 in 7.0 mi NE 10.4 mph - N/A   Overcast
1:36 AM -34.6 °F -57.8 °F - N/A% 29.44 in 10.0 mi NNE 9.2 mph - N/A   Overcast
1:56 AM -34.6 °F -60.5 °F - N/A% 29.44 in 10.0 mi NNE 11.5 mph - N/A   Overcast
2:16 AM -34.6 °F -59.2 °F - N/A% 29.43 in 9.0 mi NNE 10.4 mph - N/A   Overcast
2:36 AM -34.6 °F -59.2 °F - N/A% 29.42 in 8.0 mi NNE 10.4 mph - N/A   Overcast
2:56 AM -34.6 °F -59.2 °F - N/A% 29.42 in 9.0 mi NNE 10.4 mph - N/A   Overcast
3:16 AM -34.6 °F -57.8 °F - N/A% 29.42 in 10.0 mi NNE 9.2 mph - N/A   Overcast
3:36 AM -34.6 °F -57.8 °F - N/A% 29.41 in 10.0 mi NE 9.2 mph - N/A   Overcast
3:56 AM -34.6 °F -59.2 °F - N/A% 29.40 in 10.0 mi NNE 10.4 mph - N/A   Overcast
4:16 AM -34.6 °F -56.3 °F - N/A% 29.40 in 10.0 mi NNE 8.1 mph - N/A   Overcast
4:36 AM -32.8 °F -55.6 °F - N/A% 29.40 in 10.0 mi NNE 9.2 mph - N/A   Overcast
4:56 AM -32.8 °F -54.1 °F - N/A% 29.39 in 10.0 mi NNE 8.1 mph - N/A   Overcast
5:16 AM -32.8 °F -54.1 °F - N/A% 29.38 in 10.0 mi NNE 8.1 mph - N/A   Overcast
5:36 AM -32.8 °F -54.1 °F - N/A% 29.38 in 10.0 mi NNE 8.1 mph - N/A   Overcast
5:56 AM -32.8 °F -52.4 °F - N/A% 29.38 in 10.0 mi NNE 6.9 mph - N/A   Overcast
6:16 AM -32.8 °F -54.1 °F - N/A% 29.38 in 9.0 mi NNE 8.1 mph - N/A   Overcast
6:36 AM -32.8 °F -54.1 °F - N/A% 29.38 in 10.0 mi NE 8.1 mph - N/A   Overcast
6:56 AM -32.8 °F -54.1 °F - N/A% 29.37 in 10.0 mi NNE 8.1 mph - N/A   Overcast
7:16 AM -32.8 °F -55.6 °F - N/A% 29.37 in 10.0 mi NNE 9.2 mph - N/A   Overcast
7:36 AM -34.6 °F -57.8 °F - N/A% 29.37 in 10.0 mi NNE 9.2 mph - N/A   Overcast
7:56 AM -34.6 °F -59.2 °F - N/A% 29.38 in 10.0 mi NE 10.4 mph - N/A   Overcast
8:16 AM -34.6 °F -56.3 °F - N/A% 29.37 in 6.0 mi NNE 8.1 mph - N/A   Overcast
8:36 AM -34.6 °F -56.3 °F - N/A% 29.37 in 3.0 mi NNE 8.1 mph - N/A   Overcast
8:56 AM -34.6 °F -56.3 °F - N/A% 29.36 in 3.0 mi NE 8.1 mph - N/A   Overcast
9:16 AM -34.6 °F -56.3 °F - N/A% 29.36 in 2.0 mi NNE 8.1 mph - N/A   Overcast
9:36 AM -34.6 °F -57.8 °F - N/A% 29.36 in 2.0 mi NNE 9.2 mph - N/A   Overcast
9:56 AM -34.6 °F -57.8 °F - N/A% 29.36 in 2.0 mi NE 9.2 mph - N/A   Overcast
10:16 AM -34.6 °F -57.8 °F - N/A% 29.36 in 1.5 mi NE 9.2 mph - N/A   Overcast
10:36 AM -34.6 °F -52.6 °F - N/A% 29.35 in 2.0 mi NE 5.8 mph - N/A   Overcast
10:56 AM -34.6 °F -52.6 °F - N/A% 29.35 in 3.0 mi NE 5.8 mph - N/A   Overcast
11:16 AM -36.4 °F -56.8 °F - N/A% 29.35 in 7.0 mi NNE 6.9 mph - N/A   Scattered Clouds
11:36 AM -36.4 °F -54.8 °F - N/A% 29.34 in 9.0 mi NE 5.8 mph - N/A   Partly Cloudy
11:56 AM -36.4 °F -54.8 °F - N/A% 29.35 in 8.0 mi NNE 5.8 mph - N/A   Partly Cloudy
12:16 PM -36.4 °F -54.8 °F - N/A% 29.35 in 10.0 mi NE 5.8 mph - N/A   Clear
12:36 PM -34.6 °F -52.6 °F - N/A% 29.35 in 5.0 mi NNE 5.8 mph - N/A   Mostly Cloudy
12:56 PM -36.4 °F -56.8 °F - N/A% 29.35 in 5.0 mi NE 6.9 mph - N/A   Overcast
1:16 PM -36.4 °F -56.8 °F - N/A% 29.35 in 6.0 mi NE 6.9 mph - N/A   Scattered Clouds
1:36 PM -36.4 °F -56.8 °F - N/A% 29.35 in 10.0 mi NE 6.9 mph - N/A   Partly Cloudy
1:56 PM -36.4 °F -58.5 °F - N/A% 29.34 in 9.0 mi NE 8.1 mph - N/A   Scattered Clouds
2:16 PM -36.4 °F -58.5 °F - N/A% 29.34 in 8.0 mi NE 8.1 mph - N/A   Partly Cloudy
2:36 PM -36.4 °F -60.1 °F - N/A% 29.34 in 10.0 mi NE 9.2 mph - N/A   Clear
2:56 PM -36.4 °F -58.5 °F - N/A% 29.34 in 7.0 mi NE 8.1 mph - N/A   Clear
3:16 PM -36.4 °F -54.8 °F - N/A% 29.34 in 10.0 mi NE 5.8 mph - N/A   Partly Cloudy
3:36 PM -36.4 °F -56.8 °F - N/A% 29.33 in 3.0 mi NNE 6.9 mph - N/A   Mostly Cloudy
3:56 PM -36.4 °F -58.5 °F - N/A% 29.34 in 9.0 mi NNE 8.1 mph - N/A   Overcast
4:16 PM -36.4 °F -60.1 °F - N/A% 29.33 in 4.0 mi NNE 9.2 mph - N/A   Overcast
4:36 PM -36.4 °F -60.1 °F - N/A% 29.33 in 5.0 mi NNE 9.2 mph - N/A   Overcast
4:56 PM -36.4 °F -58.5 °F - N/A% 29.33 in 8.0 mi NNE 8.1 mph - N/A   Overcast
5:16 PM -36.4 °F -58.5 °F - N/A% 29.33 in 7.0 mi NNE 8.1 mph - N/A   Overcast
5:36 PM -36.4 °F -54.8 °F - N/A% 29.32 in 8.0 mi NNE 5.8 mph - N/A   Overcast
5:56 PM -38.2 °F -58.9 °F - N/A% 29.32 in 4.0 mi North 6.9 mph - N/A   Scattered Clouds
6:16 PM -38.2 °F -56.9 °F - N/A% 29.32 in 3.0 mi NNE 5.8 mph - N/A   Mostly Cloudy
6:36 PM -38.2 °F -56.9 °F - N/A% 29.32 in 3.0 mi NNE 5.8 mph - N/A   Mostly Cloudy
6:56 PM -36.4 °F -56.8 °F - N/A% 29.32 in 10.0 mi NNE 6.9 mph - N/A   Partly Cloudy
7:16 PM -38.2 °F -56.9 °F - N/A% 29.32 in 10.0 mi North 5.8 mph - N/A   Clear
7:36 PM -38.2 °F -58.9 °F - N/A% 29.32 in 9.0 mi North 6.9 mph - N/A   Clear
7:56 PM -38.2 °F -60.7 °F - N/A% 29.32 in 5.0 mi NNE 8.1 mph - N/A   Scattered Clouds
8:16 PM -36.4 °F -58.5 °F - N/A% 29.32 in 8.0 mi NNE 8.1 mph - N/A   Overcast
8:36 PM -36.4 °F -58.5 °F - N/A% 29.33 in 10.0 mi NNE 8.1 mph - N/A   Overcast
8:56 PM -36.4 °F -54.8 °F - N/A% 29.33 in 5.0 mi NNE 5.8 mph - N/A   Overcast
9:16 PM -36.4 °F -54.8 °F - N/A% 29.32 in 4.0 mi North 5.8 mph - N/A   Overcast
9:36 PM -36.4 °F -58.5 °F - N/A% 29.32 in 4.0 mi NNE 8.1 mph - N/A   Overcast
9:56 PM -36.4 °F -58.5 °F - N/A% 29.32 in 6.0 mi NNE 8.1 mph - N/A   Overcast
10:16 PM -36.4 °F -56.8 °F - N/A% 29.32 in 5.0 mi NNE 6.9 mph - N/A   Overcast
10:36 PM -36.4 °F -54.8 °F - N/A% 29.32 in 7.0 mi NNE 5.8 mph - N/A   Overcast
10:56 PM -34.6 °F -56.3 °F - N/A% 29.32 in 5.0 mi NNE 8.1 mph - N/A   Overcast
11:16 PM -34.6 °F -56.3 °F - N/A% 29.32 in 9.0 mi NNE 8.1 mph - N/A   Overcast
11:36 PM -34.6 °F -54.6 °F - N/A% 29.33 in 7.0 mi NNE 6.9 mph - N/A   Overcast
11:56 PM -34.6 °F -56.3 °F - N/A% 29.33 in 4.0 mi NNE 8.1 mph - N/A   Overcast